Airfield :
LOGIN :

Register | Disclaimer

   EN    FR    IT 

 










Legend :    VFR   Marginal VFR   IFR   Intensive IFR   Very Intensive IFR
Visi :
Ceiling :
>= 8 km
>= 3000ft
5 to 8 km
1000 to 3000 ft
1500m to 5 km
500 to 1000 ft
800 to 1500m
200 to 500 ft
< 800m
< 200 ft
Symbols :   Thunderstorms  Fog  Heavy snow  Heavy precipitations  Wind > 20 kt
SIGMETs :     Misc.  Thunderstorms  Icing  Turbulence  Mountain Waves  Volcanic Ashes







- Airport Elevation : 1306 ft
- IATA code : ACH


LSZR - Alten Rhein

CURRENT METAR :
  • 220020Z AUTO 12006KT 9999 OVC070 18/17 Q1015

EXPIRED METARs :
  • 212350Z AUTO 10007KT 9999 FEW040 OVC045 18/17 Q1015
  • 212320Z AUTO 11006KT 9999 -RA FEW003 BKN044 OVC060 18/17 Q1015
  • 212250Z AUTO VRB02KT 9000 RA BKN035 18/17 Q1016 RETSRA
  • 212220Z AUTO 28011KT 9000 -RA BKN027 SCT060TCU 19/17 Q1015
  • 212150Z AUTO 31009KT 9999 -RA BKN031TCU BKN070 20/17 Q1014 RETS

Expired Forecast.
ATIS : +41 71 858 51 66
No reported NOTAMs for that airfield.



MET'MAP, your aeronautical weather chart ! - Copyright ORBIFLY December 2007 - Disclaimer

ORBIFLY MET'MAP TEAM :

Programming & Development : Alexandra Zaïnal
Concept & Development : Baudouin d'Aumeries
Co-Development & Prog : Marc-Olivier Méhu
Technical & hardware support : Manuel Goepfert

Contact : metmap@orbifly.com




SOURCES & CREDITS :

   NOAA